QPF
0.04 0.03 0.03 0.04 0.06 0.08 0.07 0.05 0.04 0.03 0.04 0.04 0.05 0.05 0.04 0.05 0.06 0.07 0.08 0.09 0.09 0.09 0.10 0.10 0.09 0.09 0.08 0.08 0.06 0.04 0.04 0.04 0.05 0.05 0.04 0.04 0.03 0.04 0.06 0.06 0.05 0.05 0.04
0.06 0.03 0.04 0.05 0.05 0.10 0.07 0.05 0.04 0.03 0.02 0.03 0.04 0.04 0.03 0.02 0.02 0.02 0.03 0.04 0.06 0.06 0.07 0.08 0.09 0.08 0.07 0.06 0.05 0.04 0.04 0.04 0.05 0.05 0.05 0.04 0.03 0.03 0.05 0.06 0.06 0.05 0.04
0.06 0.04 0.05 0.07 0.06 0.10 0.10 0.06 0.04 0.02 0.02 0.03 0.04 0.03 0.02 0.01 0.02 0.02 0.02 0.03 0.04 0.05 0.07 0.08 0.09 0.07 0.07 0.06 0.05 0.05 0.05 0.06 0.07 0.07 0.06 0.05 0.05 0.04 0.04 0.06 0.09 0.08 0.05
0.09 0.05 0.04 0.05 0.07 0.11 0.11 0.06 0.05 0.03 0.02 0.03 0.03 0.03 0.03 0.03 0.02 0.03 0.05 0.06 0.07 0.08 0.10 0.09 0.09 0.08 0.07 0.06 0.06 0.05 0.05 0.06 0.07 0.07 0.05 0.05 0.05 0.06 0.06 0.06 0.07 0.08 0.08
0.10 0.04 0.03 0.06 0.08 0.11 0.10 0.06 0.06 0.05 0.04 0.04 0.04 0.04 0.03 0.03 0.03 0.03 0.04 0.05 0.06 0.06 0.07 0.07 0.07 0.08 0.07 0.07 0.07 0.06 0.05 0.05 0.05 0.05 0.04 0.05 0.05 0.06 0.06 0.05 0.05 0.06 0.06
0.08 0.05 0.03 0.04 0.07 0.09 0.10 0.08 0.07 0.06 0.05 0.05 0.05 0.04 0.03 0.04 0.05 0.04 0.04 0.03 0.03 0.04 0.05 0.05 0.05 0.04 0.04 0.04 0.04 0.04 0.05 0.05 0.05 0.05 0.04 0.04 0.05 0.06 0.05 0.05 0.05 0.04 0.04
0.05 0.04 0.04 0.04 0.05 0.06 0.08 0.07 0.07 0.07 0.06 0.05 0.04 0.03 0.03 0.03 0.03 0.03 0.04 0.03 0.03 0.03 0.04 0.05 0.05 0.04 0.04 0.03 0.03 0.04 0.03 0.03 0.04 0.05 0.05 0.05 0.05 0.05 0.04 0.04 0.05 0.04 0.04
0.03 0.04 0.04 0.04 0.04 0.04 0.05 0.05 0.05 0.06 0.05 0.04 0.03 0.02 0.01 0.01 0.02 0.04 0.04 0.03 0.03 0.03 0.03 0.03 0.03 0.03 0.03 0.03 0.03 0.03 0.03 0.03 0.04 0.04 0.05 0.04 0.04 0.03 0.03 0.03 0.04 0.03 0.03
0.03 0.05 0.04 0.05 0.04 0.04 0.04 0.05 0.03 0.04 0.04 0.03 0.03 0.02 0.01 0.01 0.01 0.02 0.04 0.04 0.03 0.03 0.03 0.02 0.02 0.03 0.03 0.03 0.03 0.03 0.03 0.04 0.04 0.04 0.04 0.04 0.04 0.03 0.03 0.03 0.03 0.03 0.03
0.03 0.04 0.03 0.04 0.04 0.04 0.05 0.04 0.03 0.02 0.03 0.03 0.03 0.02 0.01 0.01 0.01 0.02 0.02 0.02 0.02 0.02 0.02 0.02 0.01 0.01 0.03 0.03 0.03 0.04 0.04 0.04 0.04 0.03 0.02 0.02 0.02 0.02 0.02 0.02 0.02 0.02 0.02
0.03 0.04 0.03 0.04 0.05 0.05 0.05 0.04 0.03 0.02 0.02 0.02 0.02 0.02 0.02 0.01 0.01 0.01 0.01 0.01 0.01 0.01 0.02 0.02 0.02 0.01 0.02 0.03 0.02 0.03 0.03 0.04 0.04 0.03 0.02 0.01 0.02 0.02 0.02 0.01 0.01 0.01 0.01
0.03 0.04 0.04 0.03 0.04 0.04 0.04 0.05 0.04 0.03 0.03 0.03 0.03 0.02 0.02 0.02 0.01 0.01 0.01 0.01 0.01 0.01 0.01 0.02 0.02 0.01 0.01 0.02 0.02 0.02 0.02 0.02 0.03 0.02 0.02 0.01 0.01 0.01 0.01 0.01 0.01 0.01 0.01
0.04 0.06 0.06 0.05 0.04 0.04 0.04 0.03 0.03 0.03 0.04 0.04 0.03 0.02 0.02 0.01 0.01 0.01 0.01 0.01 0.01 0.01 0.01 0.02 0.02 0.02 0.01 0.01 0.01 0.02 0.02 0.02 0.02 0.02 0.02 0.02 0.01 0.01 0.01 0.01 0.01 0.01 0.01
0.04 0.06 0.06 0.05 0.04 0.03 0.02 0.02 0.02 0.03 0.03 0.03 0.02 0.02 0.01 0.01 0.02 0.02 0.02 0.02 0.01 0.01 0.01 0.02 0.02 0.02 0.01 0.01 0.01 0.01 0.02 0.03 0.04 0.03 0.03 0.02 0.02 0.01 0.01 0.01 0.01 0.01 0.02
0.06 0.06 0.06 0.06 0.03 0.02 0.01 0.01 0.02 0.02 0.03 0.03 0.02 0.01 0.01 0.01 0.02 0.03 0.02 0.02 0.01 0.01 0.01 0.01 0.01 0.01 0.01 0.01 0.01 0.02 0.04 0.04 0.04 0.03 0.02 0.02 0.01 0.01 0.01 0.01 0.02 0.02 0.02
0.05 0.05 0.04 0.04 0.03 0.01 0.01 0.01 0.02 0.03 0.03 0.03 0.02 0.02 0.02 0.02 0.03 0.03 0.03 0.01 0.01 0.00 0.00 0.00 0.00 0.01 0.01 0.01 0.02 0.03 0.04 0.03 0.02 0.02 0.02 0.02 0.02 0.01 0.01 0.02 0.02 0.02 0.02
0.02 0.03 0.03 0.03 0.02 0.02 0.01 0.01 0.02 0.02 0.02 0.02 0.02 0.03 0.04 0.04 0.04 0.03 0.02 0.01 0.01 0.00 0.00 0.00 0.00 0.01 0.01 0.01 0.02 0.02 0.02 0.02 0.02 0.01 0.01 0.02 0.02 0.02 0.02 0.02 0.02 0.02 0.01
0.02 0.03 0.02 0.02 0.02 0.02 0.02 0.02 0.02 0.01 0.02 0.02 0.03 0.04 0.04 0.04 0.04 0.02 0.01 0.01 0.01 0.01 0.01 0.01 0.01 0.01 0.01 0.01 0.01 0.01 0.01 0.02 0.02 0.01 0.01 0.01 0.01 0.01 0.01 0.02 0.02 0.01 0.01
0.01 0.01 0.01 0.01 0.01 0.02 0.02 0.03 0.03 0.02 0.02 0.02 0.03 0.03 0.03 0.03 0.02 0.01 0.01 0.01 0.01 0.01 0.01 0.01 0.01 0.01 0.01 0.01 0.01 0.01 0.01 0.02 0.01 0.01 0.01 0.01 0.01 0.01 0.01 0.01 0.01 0.01 0.01
0.01 0.01 0.01 0.01 0.01 0.01 0.02 0.03 0.02 0.01 0.01 0.01 0.02 0.02 0.01 0.02 0.01 0.01 0.01 0.01 0.01 0.01 0.01 0.01 0.01 0.01 0.01 0.01 0.01 0.01 0.01 0.02 0.01 0.01 0.01 0.01 0.01 0.01 0.01 0.01 0.01 0.01 0.02
0.01 0.01 0.01 0.01 0.01 0.01 0.01 0.01 0.02 0.01 0.01 0.01 0.01 0.01 0.01 0.01 0.01 0.01 0.01 0.01 0.01 0.01 0.01 0.01 0.01 0.01 0.01 0.01 0.01 0.01 0.01 0.02 0.02 0.01 0.02 0.01 0.01 0.01 0.01 0.01 0.01 0.01 0.01
0.02 0.01 0.01 0.01 0.01 0.01 0.01 0.01 0.01 0.01 0.01 0.01 0.01 0.01 0.01 0.00 0.00 0.01 0.01 0.00 0.01 0.01 0.01 0.00 0.00 0.00 0.00 0.01 0.01 0.00 0.01 0.01 0.01 0.02 0.01 0.01 0.01 0.00 0.00 0.01 0.01 0.01 0.01
0.01 0.01 0.01 0.01 0.01 0.01 0.01 0.01 0.01 0.01 0.01 0.01 0.01 0.00 0.00 0.00 0.00 0.01 0.01 0.00 0.00 0.00 0.00 0.00 0.00 0.00 0.00 0.00 0.00 0.00 0.00 0.00 0.01 0.02 0.02 0.02 0.01 0.01 0.01 0.01 0.01 0.01 0.02
0.02 0.01 0.01 0.01 0.01 0.01 0.01 0.01 0.01 0.01 0.01 0.01 0.01 0.00 0.00 0.00 0.00 0.00 0.00 0.00 0.00 0.00 0.00 0.00 0.00 0.00 0.00 0.01 0.01 0.01 0.01 0.01 0.01 0.01 0.01 0.01 0.01 0.01 0.01 0.01 0.01 0.01 0.01
0.01 0.01 0.00 0.01 0.00 0.01 0.01 0.01 0.00 0.00 0.00 0.00 0.00 0.00 0.00 0.00 0.01 0.01 0.00 0.00 0.00 0.00 0.00 0.01 0.00 0.00 0.00 0.00 0.01 0.01 0.01 0.01 0.01 0.01 0.00 0.01 0.00 0.00 0.00 0.01 0.01 0.01 0.01
0.01 0.01 0.01 0.01 0.00 0.01 0.01 0.01 0.00 0.00 0.00 0.01 0.01 0.01 0.01 0.01 0.01 0.01 0.00 0.00 0.00 0.00 0.00 0.00 0.00 0.00 0.00 0.00 0.00 0.00 0.00 0.00 0.00 0.00 0.00 0.00 0.00 0.00 0.00 0.00 0.00 0.00 0.00
MSLP
1000.62 999.63 998.71 997.91 997.27 996.82 996.61 996.68 997.03 997.64 998.48 999.47 1000.54 1001.59 1002.56 1003.38 1004.03 1004.51 1004.85 1005.09 1005.27 1005.46 1005.69 1005.98 1006.34 1006.76 1007.22 1007.70 1008.18 1008.64 1009.06 1009.43 1009.76 1010.03 1010.22 1010.33 1010.35 1010.26 1010.07 1009.78 1009.41 1008.97 1008.49
1000.30 999.25 998.28 997.44 996.78 996.33 996.13 996.22 996.60 997.24 998.11 999.14 1000.25 1001.35 1002.37 1003.26 1003.98 1004.54 1004.96 1005.27 1005.51 1005.74 1005.98 1006.26 1006.59 1006.96 1007.36 1007.78 1008.21 1008.62 1009.02 1009.38 1009.71 1009.98 1010.18 1010.30 1010.32 1010.23 1010.04 1009.75 1009.37 1008.93 1008.46
1000.29 999.23 998.26 997.42 996.76 996.31 996.12 996.20 996.56 997.18 998.03 999.03 1000.12 1001.21 1002.25 1003.17 1003.96 1004.59 1005.10 1005.50 1005.83 1006.12 1006.41 1006.70 1007.01 1007.35 1007.69 1008.04 1008.40 1008.75 1009.09 1009.42 1009.71 1009.97 1010.17 1010.30 1010.33 1010.26 1010.08 1009.80 1009.44 1009.03 1008.58
1000.58 999.58 998.66 997.86 997.22 996.79 996.59 996.64 996.95 997.51 998.27 999.19 1000.20 1001.24 1002.24 1003.17 1003.99 1004.69 1005.28 1005.79 1006.21 1006.60 1006.94 1007.27 1007.59 1007.89 1008.18 1008.46 1008.74 1009.00 1009.27 1009.53 1009.78 1010.01 1010.19 1010.32 1010.36 1010.31 1010.17 1009.93 1009.61 1009.23 1008.83
1001.12 1000.21 999.38 998.66 998.08 997.67 997.47 997.48 997.73 998.19 998.84 999.63 1000.53 1001.46 1002.40 1003.29 1004.12 1004.86 1005.53 1006.13 1006.66 1007.13 1007.55 1007.93 1008.25 1008.53 1008.78 1008.98 1009.17 1009.35 1009.52 1009.70 1009.89 1010.07 1010.23 1010.35 1010.40 1010.38 1010.28 1010.09 1009.82 1009.50 1009.14
1001.79 1001.01 1000.30 999.68 999.18 998.82 998.63 998.62 998.79 999.16 999.68 1000.34 1001.10 1001.92 1002.75 1003.59 1004.39 1005.16 1005.88 1006.55 1007.16 1007.71 1008.20 1008.61 1008.95 1009.22 1009.41 1009.55 1009.65 1009.73 1009.81 1009.90 1010.02 1010.14 1010.27 1010.37 1010.44 1010.44 1010.38 1010.24 1010.03 1009.77 1009.47
1002.50 1001.85 1001.28 1000.77 1000.37 1000.08 999.92 999.90 1000.03 1000.32 1000.74 1001.27 1001.90 1002.59 1003.33 1004.09 1004.85 1005.61 1006.34 1007.05 1007.71 1008.32 1008.85 1009.29 1009.63 1009.88 1010.03 1010.10 1010.12 1010.11 1010.11 1010.12 1010.15 1010.22 1010.30 1010.39 1010.45 1010.48 1010.44 1010.35 1010.19 1009.99 1009.75
1003.16 1002.64 1002.19 1001.81 1001.51 1001.30 1001.20 1001.21 1001.34 1001.58 1001.93 1002.37 1002.89 1003.48 1004.12 1004.79 1005.50 1006.22 1006.94 1007.65 1008.32 1008.94 1009.48 1009.92 1010.25 1010.47 1010.58 1010.60 1010.55 1010.47 1010.39 1010.33 1010.30 1010.31 1010.35 1010.40 1010.46 1010.49 1010.47 1010.41 1010.29 1010.13 1009.94
1003.75 1003.34 1003.00 1002.73 1002.54 1002.43 1002.40 1002.47 1002.62 1002.86 1003.18 1003.57 1004.02 1004.53 1005.09 1005.69 1006.33 1006.99 1007.66 1008.33 1008.98 1009.57 1010.09 1010.50 1010.80 1010.98 1011.05 1011.02 1010.93 1010.79 1010.65 1010.53 1010.45 1010.41 1010.42 1010.44 1010.47 1010.49 1010.48 1010.43 1010.33 1010.20 1010.04
1004.31 1003.97 1003.72 1003.55 1003.46 1003.45 1003.51 1003.65 1003.85 1004.12 1004.44 1004.82 1005.24 1005.69 1006.19 1006.72 1007.28 1007.87 1008.48 1009.08 1009.66 1010.20 1010.65 1011.02 1011.27 1011.41 1011.44 1011.37 1011.24 1011.08 1010.90 1010.75 1010.64 1010.56 1010.53 1010.52 1010.52 1010.52 1010.49 1010.43 1010.34 1010.21 1010.06
1004.90 1004.62 1004.43 1004.34 1004.33 1004.40 1004.55 1004.76 1005.02 1005.34 1005.69 1006.07 1006.47 1006.90 1007.35 1007.82 1008.31 1008.82 1009.34 1009.85 1010.35 1010.80 1011.18 1011.47 1011.67 1011.76 1011.76 1011.67 1011.52 1011.34 1011.16 1010.99 1010.86 1010.77 1010.71 1010.67 1010.64 1010.60 1010.54 1010.45 1010.34 1010.20 1010.04
1005.59 1005.35 1005.21 1005.17 1005.22 1005.36 1005.56 1005.84 1006.15 1006.51 1006.89 1007.28 1007.68 1008.08 1008.49 1008.90 1009.32 1009.75 1010.18 1010.61 1011.00 1011.36 1011.66 1011.88 1012.01 1012.06 1012.02 1011.92 1011.77 1011.60 1011.43 1011.27 1011.14 1011.03 1010.96 1010.89 1010.82 1010.74 1010.64 1010.51 1010.36 1010.19 1010.01
1006.43 1006.22 1006.12 1006.11 1006.20 1006.37 1006.61 1006.92 1007.26 1007.63 1008.02 1008.41 1008.80 1009.17 1009.54 1009.91 1010.27 1010.62 1010.97 1011.31 1011.61 1011.88 1012.09 1012.24 1012.31 1012.32 1012.27 1012.16 1012.02 1011.87 1011.72 1011.58 1011.46 1011.36 1011.27 1011.18 1011.08 1010.96 1010.81 1010.63 1010.43 1010.21 1009.99
1007.44 1007.26 1007.17 1007.18 1007.28 1007.47 1007.71 1008.01 1008.35 1008.71 1009.08 1009.44 1009.80 1010.15 1010.47 1010.79 1011.09 1011.39 1011.66 1011.92 1012.15 1012.34 1012.48 1012.57 1012.60 1012.58 1012.51 1012.41 1012.28 1012.15 1012.03 1011.92 1011.81 1011.72 1011.63 1011.52 1011.39 1011.23 1011.03 1010.80 1010.54 1010.27 1010.00
1008.57 1008.41 1008.35 1008.36 1008.46 1008.63 1008.85 1009.12 1009.41 1009.73 1010.05 1010.36 1010.67 1010.97 1011.25 1011.52 1011.78 1012.02 1012.25 1012.45 1012.62 1012.75 1012.84 1012.89 1012.89 1012.84 1012.77 1012.67 1012.57 1012.46 1012.36 1012.27 1012.19 1012.11 1012.01 1011.88 1011.73 1011.53 1011.28 1011.00 1010.69 1010.37 1010.04
1009.73 1009.62 1009.57 1009.59 1009.67 1009.81 1009.99 1010.20 1010.43 1010.67 1010.92 1011.17 1011.41 1011.66 1011.89 1012.12 1012.34 1012.54 1012.73 1012.90 1013.03 1013.13 1013.19 1013.21 1013.19 1013.14 1013.06 1012.97 1012.88 1012.79 1012.71 1012.63 1012.56 1012.48 1012.38 1012.24 1012.06 1011.83 1011.55 1011.22 1010.87 1010.50 1010.13
1010.86 1010.78 1010.75 1010.78 1010.84 1010.94 1011.07 1011.22 1011.37 1011.54 1011.71 1011.88 1012.06 1012.24 1012.43 1012.62 1012.80 1012.98 1013.15 1013.30 1013.41 1013.49 1013.54 1013.54 1013.51 1013.46 1013.38 1013.29 1013.21 1013.12 1013.05 1012.99 1012.92 1012.83 1012.72 1012.57 1012.37 1012.11 1011.80 1011.45 1011.06 1010.66 1010.25
1011.87 1011.83 1011.83 1011.86 1011.91 1011.98 1012.06 1012.15 1012.24 1012.33 1012.42 1012.53 1012.64 1012.77 1012.91 1013.07 1013.23 1013.39 1013.54 1013.67 1013.78 1013.85 1013.89 1013.89 1013.86 1013.80 1013.72 1013.63 1013.55 1013.47 1013.39 1013.32 1013.24 1013.15 1013.03 1012.86 1012.64 1012.37 1012.04 1011.67 1011.27 1010.85 1010.43
1012.75 1012.73 1012.75 1012.79 1012.84 1012.89 1012.94 1012.98 1013.02 1013.05 1013.09 1013.14 1013.20 1013.29 1013.39 1013.51 1013.64 1013.78 1013.92 1014.04 1014.14 1014.21 1014.24 1014.24 1014.20 1014.14 1014.06 1013.97 1013.88 1013.80 1013.72 1013.63 1013.54 1013.43 1013.29 1013.11 1012.88 1012.59 1012.26 1011.89 1011.49 1011.07 1010.65
1013.47 1013.48 1013.51 1013.56 1013.61 1013.65 1013.68 1013.70 1013.71 1013.72 1013.72 1013.73 1013.76 1013.80 1013.87 1013.96 1014.07 1014.18 1014.30 1014.40 1014.49 1014.55 1014.57 1014.57 1014.53 1014.47 1014.39 1014.30 1014.21 1014.11 1014.02 1013.92 1013.81 1013.68 1013.52 1013.32 1013.08 1012.80 1012.47 1012.11 1011.72 1011.33 1010.93
1014.07 1014.09 1014.12 1014.17 1014.22 1014.27 1014.30 1014.32 1014.32 1014.31 1014.30 1014.29 1014.29 1014.31 1014.35 1014.41 1014.48 1014.56 1014.65 1014.73 1014.80 1014.84 1014.85 1014.84 1014.81 1014.75 1014.67 1014.59 1014.49 1014.39 1014.29 1014.18 1014.05 1013.90 1013.72 1013.51 1013.27 1012.98 1012.67 1012.33 1011.98 1011.62 1011.26
1014.57 1014.57 1014.60 1014.65 1014.70 1014.75 1014.79 1014.81 1014.82 1014.82 1014.81 1014.79 1014.78 1014.78 1014.79 1014.81 1014.85 1014.89 1014.94 1014.99 1015.03 1015.05 1015.06 1015.04 1015.01 1014.96 1014.89 1014.82 1014.73 1014.63 1014.52 1014.40 1014.26 1014.10 1013.91 1013.69 1013.44 1013.16 1012.86 1012.56 1012.24 1011.93 1011.63
1014.98 1014.96 1014.96 1014.99 1015.04 1015.09 1015.14 1015.17 1015.19 1015.20 1015.19 1015.18 1015.16 1015.14 1015.12 1015.11 1015.11 1015.11 1015.12 1015.14 1015.15 1015.15 1015.15 1015.14 1015.12 1015.09 1015.04 1014.99 1014.91 1014.83 1014.73 1014.60 1014.45 1014.28 1014.07 1013.85 1013.60 1013.33 1013.05 1012.78 1012.51 1012.25 1012.01
1015.28 1015.23 1015.21 1015.22 1015.24 1015.29 1015.33 1015.38 1015.41 1015.42 1015.42 1015.40 1015.37 1015.34 1015.30 1015.26 1015.22 1015.19 1015.16 1015.14 1015.13 1015.13 1015.13 1015.13 1015.13 1015.13 1015.11 1015.09 1015.05 1014.98 1014.89 1014.77 1014.62 1014.44 1014.23 1014.00 1013.75 1013.49 1013.24 1012.99 1012.76 1012.56 1012.37
1015.48 1015.39 1015.33 1015.31 1015.32 1015.34 1015.38 1015.42 1015.44 1015.46 1015.46 1015.44 1015.40 1015.35 1015.28 1015.22 1015.15 1015.09 1015.04 1015.01 1014.99 1014.98 1015.00 1015.02 1015.05 1015.09 1015.12 1015.13 1015.13 1015.10 1015.03 1014.93 1014.78 1014.60 1014.39 1014.15 1013.91 1013.65 1013.41 1013.19 1013.00 1012.84 1012.70
1015.53 1015.42 1015.33 1015.28 1015.26 1015.26 1015.27 1015.29 1015.31 1015.31 1015.30 1015.27 1015.22 1015.15 1015.08 1014.99 1014.91 1014.83 1014.77 1014.74 1014.72 1014.74 1014.77 1014.83 1014.91 1014.99 1015.07 1015.14 1015.18 1015.19 1015.15 1015.07 1014.94 1014.77 1014.55 1014.32 1014.07 1013.82 1013.59 1013.38 1013.21 1013.08 1012.98
Thickness
5653 5653 5651 5649 5648 5647 5646 5645 5644 5642 5641 5640 5639 5637 5636 5635 5635 5633 5632 5630 5629 5628 5629 5628 5627 5626 5624 5623 5622 5620 5619 5617 5615 5619 5621 5623 5624 5625 5627 5628 5629 5630 5631
5649 5648 5646 5645 5644 5642 5641 5640 5639 5637 5637 5636 5635 5633 5632 5631 5630 5628 5627 5626 5624 5623 5624 5623 5623 5623 5620 5619 5618 5616 5615 5613 5611 5611 5613 5615 5617 5618 5619 5620 5622 5623 5624
5644 5643 5642 5640 5639 5638 5636 5635 5634 5633 5632 5631 5630 5628 5627 5626 5625 5624 5623 5622 5621 5620 5620 5618 5618 5617 5615 5614 5613 5611 5610 5609 5607 5605 5606 5607 5609 5611 5611 5613 5614 5615 5617
5639 5637 5636 5635 5635 5634 5633 5631 5630 5629 5627 5626 5625 5624 5623 5622 5621 5621 5619 5618 5617 5616 5616 5615 5614 5612 5611 5610 5608 5606 5604 5603 5602 5600 5600 5600 5601 5603 5603 5603 5605 5607 5609
5633 5632 5631 5632 5632 5631 5629 5628 5626 5625 5624 5622 5621 5619 5618 5617 5617 5616 5615 5615 5613 5612 5611 5611 5610 5609 5608 5606 5604 5601 5599 5597 5596 5595 5594 5594 5594 5595 5595 5596 5596 5598 5600
5628 5627 5628 5628 5627 5626 5625 5624 5622 5621 5619 5618 5616 5614 5613 5614 5613 5612 5612 5610 5608 5606 5606 5606 5606 5605 5603 5602 5600 5598 5596 5593 5591 5590 5589 5588 5589 5590 5590 5590 5588 5589 5591
5624 5624 5624 5624 5623 5623 5622 5620 5618 5616 5614 5612 5611 5610 5609 5609 5609 5609 5608 5606 5603 5602 5601 5600 5601 5600 5597 5596 5595 5594 5592 5591 5589 5587 5585 5584 5584 5585 5584 5584 5583 5583 5585
5620 5621 5621 5620 5620 5619 5618 5616 5615 5612 5610 5608 5608 5607 5606 5607 5607 5605 5604 5602 5599 5597 5596 5595 5594 5594 5593 5590 5589 5587 5586 5585 5584 5583 5582 5582 5582 5581 5580 5580 5579 5578 5580
5617 5618 5619 5618 5617 5616 5614 5613 5611 5609 5607 5606 5605 5604 5604 5604 5604 5603 5601 5597 5594 5593 5592 5591 5589 5588 5588 5585 5583 5581 5580 5580 5580 5579 5578 5578 5577 5577 5576 5574 5573 5572 5572
5616 5616 5617 5617 5615 5614 5612 5611 5608 5607 5605 5605 5603 5602 5602 5601 5601 5599 5597 5593 5590 5589 5588 5587 5586 5585 5583 5582 5578 5575 5574 5574 5574 5574 5573 5573 5573 5573 5573 5571 5569 5567 5566
5615 5616 5616 5616 5614 5612 5611 5608 5606 5605 5604 5603 5601 5600 5599 5599 5597 5595 5593 5589 5587 5585 5584 5583 5583 5582 5580 5578 5575 5573 5572 5570 5568 5567 5567 5567 5568 5569 5569 5568 5567 5565 5564
5614 5614 5614 5614 5613 5613 5609 5606 5604 5603 5600 5599 5597 5596 5596 5595 5594 5592 5590 5588 5585 5582 5580 5580 5579 5578 5577 5575 5572 5571 5570 5568 5565 5563 5562 5562 5563 5564 5565 5565 5564 5564 5564
5612 5612 5612 5612 5611 5610 5607 5605 5602 5600 5598 5597 5595 5592 5592 5592 5590 5589 5587 5585 5583 5580 5578 5578 5577 5574 5573 5572 5571 5569 5567 5564 5562 5559 5558 5558 5559 5560 5560 5560 5561 5560 5561
5610 5610 5610 5610 5609 5607 5605 5603 5601 5599 5597 5596 5593 5591 5589 5588 5587 5586 5584 5582 5580 5577 5575 5574 5573 5571 5569 5568 5567 5565 5563 5561 5558 5556 5555 5555 5555 5555 5555 5555 5554 5554 5554
5609 5609 5609 5609 5607 5605 5603 5602 5601 5600 5598 5596 5594 5591 5588 5587 5587 5585 5581 5579 5576 5573 5570 5569 5567 5565 5564 5562 5561 5560 5559 5557 5554 5553 5551 5550 5550 5550 5550 5549 5548 5548 5548
5609 5608 5608 5608 5606 5604 5602 5601 5601 5600 5600 5598 5596 5593 5591 5589 5586 5583 5581 5578 5574 5571 5567 5564 5562 5560 5558 5556 5555 5554 5553 5551 5550 5548 5546 5545 5544 5544 5544 5544 5543 5542 5542
5609 5609 5608 5607 5606 5604 5602 5600 5599 5599 5599 5598 5596 5594 5592 5589 5586 5584 5580 5577 5574 5570 5565 5562 5559 5558 5555 5553 5550 5548 5547 5546 5544 5542 5540 5539 5538 5538 5538 5537 5537 5537 5537
5610 5610 5609 5607 5606 5605 5603 5601 5599 5598 5596 5596 5595 5594 5592 5589 5586 5582 5579 5575 5571 5568 5564 5561 5558 5556 5552 5549 5546 5544 5542 5540 5538 5536 5534 5533 5532 5532 5531 5531 5530 5530 5530
5611 5610 5609 5608 5607 5606 5604 5602 5600 5599 5596 5594 5593 5591 5590 5587 5584 5581 5577 5572 5569 5566 5563 5559 5556 5553 5550 5547 5544 5541 5538 5535 5533 5531 5529 5528 5527 5525 5525 5524 5524 5524 5523
5612 5612 5611 5609 5608 5606 5605 5602 5600 5598 5596 5593 5591 5589 5587 5585 5581 5579 5575 5571 5567 5564 5561 5557 5553 5550 5546 5543 5540 5537 5534 5532 5529 5526 5524 5522 5521 5520 5519 5518 5517 5516 5516
5612 5612 5612 5609 5608 5606 5605 5602 5600 5598 5595 5593 5591 5590 5587 5583 5579 5576 5573 5570 5567 5563 5559 5555 5551 5547 5543 5539 5536 5533 5530 5527 5524 5521 5519 5517 5516 5514 5513 5512 5511 5511 5510
5611 5610 5610 5608 5607 5606 5604 5603 5600 5598 5596 5593 5591 5589 5586 5582 5578 5575 5572 5569 5566 5562 5558 5553 5549 5544 5540 5535 5532 5528 5525 5522 5519 5516 5514 5512 5510 5509 5508 5507 5506 5505 5504
5611 5610 5609 5608 5607 5606 5604 5602 5600 5598 5596 5593 5590 5587 5584 5580 5577 5574 5571 5568 5564 5561 5556 5551 5546 5541 5537 5532 5528 5523 5519 5516 5513 5510 5508 5506 5505 5504 5502 5501 5500 5499 5498
5611 5610 5609 5608 5607 5605 5603 5602 5600 5598 5595 5592 5589 5586 5583 5579 5576 5573 5570 5566 5562 5558 5554 5549 5544 5539 5534 5529 5524 5519 5515 5512 5509 5506 5504 5501 5500 5498 5497 5496 5495 5494 5492
5611 5610 5609 5608 5606 5604 5603 5601 5599 5597 5594 5591 5588 5585 5582 5578 5575 5571 5567 5564 5560 5555 5550 5546 5541 5536 5531 5525 5520 5516 5512 5509 5506 5503 5501 5498 5496 5495 5493 5492 5490 5488 5486
5610 5610 5609 5608 5606 5604 5602 5600 5598 5596 5593 5590 5587 5584 5581 5577 5573 5570 5566 5561 5557 5552 5547 5542 5537 5532 5527 5522 5517 5513 5509 5506 5503 5500 5498 5495 5493 5490 5488 5486 5485 5482 5480